When you browse on this site, cookies collect data to enhance your experience and personalize the content and advertising you see.
Visit our Privacy Policy to learn more. By continuing to use the site, you agree to this use of cookies and data.
EN

Hourly Weather Novosarinskiy

Today, 29 September, Tuesday

Time Temperature Precipitation Wind Pressure Humidity
00:00 +10°C° 0 mm 2 mps 734 mmHg 58%
01:00 +10°C° 0 mm 2 mps 734 mmHg 59%
02:00 +9°C° 0 mm 2 mps 734 mmHg 62%
03:00 +9°C° 0 mm 3 mps 734 mmHg 64%
04:00 +8°C° 0 mm 3 mps 734 mmHg 66%
05:00 +8°C° 0 mm 3 mps 734 mmHg 69%
06:00 +8°C° 0 mm 3 mps 734 mmHg 73%
07:00 +8°C° 0 mm 3 mps 734 mmHg 76%
08:00 +10°C° 0 mm 4 mps 735 mmHg 70%
09:00 +11°C° 0 mm 4 mps 735 mmHg 65%
10:00 +13°C° 0 mm 4 mps 735 mmHg 60%
11:00 +14°C° 0 mm 4 mps 735 mmHg 55%
12:00 +15°C° 0 mm 4 mps 735 mmHg 50%
13:00 +17°C° 0 mm 4 mps 735 mmHg 45%
14:00 +17°C° 0 mm 4 mps 735 mmHg 44%
15:00 +17°C° 0 mm 4 mps 735 mmHg 42%
16:00 +17°C° 0 mm 4 mps 735 mmHg 41%
17:00 +16°C° 0 mm 3 mps 734 mmHg 45%
18:00 +13°C° 0 mm 3 mps 734 mmHg 50%
19:00 +12°C° 0 mm 3 mps 734 mmHg 55%
20:00 +11°C° 0 mm 3 mps 734 mmHg 57%
21:00 +11°C° 0 mm 3 mps 734 mmHg 60%
22:00 +10°C° 0 mm 3 mps 734 mmHg 62%
23:00 +10°C° 0 mm 3 mps 734 mmHg 65%

Tomorrow, 30 September, Wednesday

Time Temperature Precipitation Wind Pressure Humidity
00:00 +9°C° 0 mm 3 mps 734 mmHg 67%
01:00 +9°C° 0 mm 3 mps 734 mmHg 69%
02:00 +9°C° 0 mm 3 mps 734 mmHg 71%
03:00 +8°C° 0 mm 2 mps 734 mmHg 73%
04:00 +8°C° 0 mm 2 mps 734 mmHg 75%
05:00 +8°C° 0 mm 2 mps 734 mmHg 76%
06:00 +8°C° 0 mm 3 mps 734 mmHg 78%
07:00 +8°C° 0 mm 3 mps 734 mmHg 79%
08:00 +10°C° 0 mm 3 mps 734 mmHg 72%
09:00 +12°C° 0 mm 3 mps 734 mmHg 66%
10:00 +14°C° 0 mm 4 mps 734 mmHg 59%
11:00 +14°C° 0 mm 4 mps 734 mmHg 57%
12:00 +15°C° 0 mm 4 mps 734 mmHg 56%
13:00 +17°C° 0 mm 4 mps 734 mmHg 54%
14:00 +15°C° 0 mm 4 mps 734 mmHg 57%
15:00 +15°C° 0 mm 4 mps 733 mmHg 59%
16:00 +14°C° 0 mm 4 mps 733 mmHg 61%
17:00 +14°C° 0 mm 4 mps 733 mmHg 62%
18:00 +13°C° 0 mm 3 mps 733 mmHg 63%
19:00 +13°C° 0 mm 3 mps 733 mmHg 63%
20:00 +12°C° 0 mm 3 mps 733 mmHg 67%
21:00 +11°C° 0 mm 3 mps 733 mmHg 70%
22:00 +10°C° 0 mm 3 mps 733 mmHg 74%
23:00 +9°C° 0 mm 3 mps 733 mmHg 78%

Day after tomorrow, 1 October, Thursday

Time Temperature Precipitation Wind Pressure Humidity
00:00 +9°C° 0 mm 3 mps 733 mmHg 82%
01:00 +8°C° 0 mm 3 mps 733 mmHg 86%
02:00 +7°C° 0 mm 3 mps 733 mmHg 87%
03:00 +7°C° 0 mm 3 mps 733 mmHg 88%
04:00 +5°C° 0 mm 3 mps 733 mmHg 89%
05:00 +5°C° 0 mm 3 mps 733 mmHg 89%
06:00 +5°C° 0 mm 3 mps 733 mmHg 89%
07:00 +5°C° 0 mm 3 mps 733 mmHg 89%
08:00 +7°C° 0 mm 4 mps 733 mmHg 79%
09:00 +10°C° 0 mm 4 mps 733 mmHg 68%
10:00 +12°C° 0 mm 5 mps 734 mmHg 58%
11:00 +13°C° 0 mm 5 mps 733 mmHg 52%
12:00 +14°C° 0 mm 5 mps 733 mmHg 46%
13:00 +15°C° 0 mm 5 mps 733 mmHg 40%
14:00 +15°C° 0 mm 5 mps 733 mmHg 40%
15:00 +15°C° 0 mm 5 mps 733 mmHg 39%
16:00 +15°C° 0 mm 4 mps 732 mmHg 38%
17:00 +14°C° 0 mm 4 mps 732 mmHg 42%
18:00 +12°C° 0 mm 3 mps 732 mmHg 46%
19:00 +11°C° 0 mm 3 mps 732 mmHg 50%
20:00 +10°C° 0 mm 3 mps 732 mmHg 52%
21:00 +10°C° 0 mm 3 mps 732 mmHg 53%
22:00 +9°C° 0 mm 3 mps 732 mmHg 54%
23:00 +9°C° 0 mm 3 mps 732 mmHg 56%

2 October, Friday

Time Temperature Precipitation Wind Pressure Humidity
00:00 +8°C° 0 mm 2 mps 732 mmHg 57%
01:00 +8°C° 0 mm 2 mps 732 mmHg 59%
02:00 +7°C° 0 mm 2 mps 732 mmHg 61%
03:00 +7°C° 0 mm 2 mps 732 mmHg 62%
04:00 +7°C° 0 mm 2 mps 732 mmHg 64%
05:00 +7°C° 0 mm 2 mps 732 mmHg 65%
06:00 +7°C° 0 mm 2 mps 732 mmHg 66%
07:00 +7°C° 0 mm 3 mps 732 mmHg 67%
08:00 +9°C° 0 mm 3 mps 732 mmHg 61%
09:00 +10°C° 0 mm 3 mps 732 mmHg 55%
10:00 +12°C° 0 mm 4 mps 732 mmHg 50%
11:00 +13°C° 0 mm 3 mps 732 mmHg 47%
12:00 +14°C° 0 mm 3 mps 732 mmHg 44%
13:00 +16°C° 0 mm 3 mps 732 mmHg 41%
14:00 +16°C° 0 mm 3 mps 732 mmHg 40%
15:00 +16°C° 0 mm 2 mps 731 mmHg 40%
16:00 +16°C° 0 mm 2 mps 731 mmHg 40%
17:00 +15°C° 0 mm 1 mps 731 mmHg 44%
18:00 +14°C° 0 mm 1 mps 731 mmHg 49%
19:00 +12°C° 0 mm 1 mps 731 mmHg 53%
20:00 +12°C° 0 mm 1 mps 731 mmHg 55%
21:00 +10°C° 0 mm 0 mps 731 mmHg 57%
22:00 +10°C° 0 mm 0 mps 731 mmHg 58%
23:00 +10°C° 0 mm 0 mps 731 mmHg 60%

3 October, Saturday

Time Temperature Precipitation Wind Pressure Humidity
00:00 +9°C° 0 mm 0 mps 730 mmHg 61%
01:00 +10°C° 0 mm 1 mps 730 mmHg 63%
02:00 +10°C° 0 mm 1 mps 730 mmHg 64%
03:00 +9°C° 0 mm 1 mps 730 mmHg 66%
04:00 +9°C° 0 mm 1 mps 730 mmHg 68%
05:00 +9°C° 0 mm 1 mps 730 mmHg 68%
06:00 +9°C° 0 mm 1 mps 730 mmHg 69%
07:00 +9°C° 0 mm 1 mps 730 mmHg 70%
08:00 +11°C° 0 mm 1 mps 730 mmHg 63%
09:00 +13°C° 0 mm 2 mps 730 mmHg 57%
10:00 +15°C° 0 mm 2 mps 730 mmHg 51%
11:00 +16°C° 0 mm 2 mps 730 mmHg 47%
12:00 +17°C° 0 mm 2 mps 730 mmHg 43%
13:00 +18°C° 0 mm 3 mps 730 mmHg 39%
14:00 +18°C° 0 mm 3 mps 730 mmHg 39%
15:00 +18°C° 0 mm 3 mps 730 mmHg 38%
16:00 +18°C° 0 mm 3 mps 729 mmHg 38%
17:00 +17°C° 0 mm 3 mps 729 mmHg 44%
18:00 +14°C° 0 mm 3 mps 729 mmHg 50%
19:00 +12°C° 0 mm 3 mps 729 mmHg 56%
20:00 +12°C° 0 mm 3 mps 729 mmHg 61%
21:00 +11°C° 0 mm 3 mps 729 mmHg 66%
22:00 +10°C° 0 mm 2 mps 729 mmHg 71%
23:00 +10°C° 0 mm 2 mps 729 mmHg 73%

4 October, Sunday

Time Temperature Precipitation Wind Pressure Humidity
00:00 +9°C° 0 mm 2 mps 729 mmHg 76%
01:00 +8°C° 0 mm 2 mps 729 mmHg 78%
02:00 +8°C° 0 mm 2 mps 729 mmHg 80%
03:00 +8°C° 0 mm 2 mps 729 mmHg 82%
04:00 +7°C° 0 mm 2 mps 729 mmHg 84%
05:00 +7°C° 0 mm 2 mps 729 mmHg 85%
06:00 +7°C° 0 mm 2 mps 729 mmHg 85%
07:00 +7°C° 0 mm 2 mps 729 mmHg 85%
08:00 +9°C° 0 mm 2 mps 730 mmHg 77%
09:00 +10°C° 0 mm 2 mps 730 mmHg 68%
10:00 +13°C° 0 mm 2 mps 730 mmHg 60%
11:00 +14°C° 0 mm 2 mps 730 mmHg 55%
12:00 +15°C° 0 mm 2 mps 730 mmHg 50%
13:00 +16°C° 0 mm 2 mps 730 mmHg 45%
14:00 +16°C° 0 mm 2 mps 730 mmHg 44%
15:00 +16°C° 0 mm 1 mps 730 mmHg 43%
16:00 +16°C° 0 mm 1 mps 729 mmHg 41%
17:00 +15°C° 0 mm 2 mps 729 mmHg 46%
18:00 +14°C° 0 mm 2 mps 729 mmHg 51%
19:00 +13°C° 0 mm 2 mps 729 mmHg 56%
20:00 +12°C° 0 mm 2 mps 729 mmHg 61%
21:00 +11°C° 0 mm 3 mps 729 mmHg 65%
22:00 +10°C° 0 mm 3 mps 729 mmHg 70%
23:00 +10°C° 0 mm 3 mps 729 mmHg 72%
Show more